Header for Extended Forecast Station List Page

Search by: ID | Name | Date | Parm | Value | Avg | % Avg
Sort by: ID | Name | Date | Parm | Value | Avg | % Avg

Enter search or view all records.

Click on id for station plot
#IDNameDateParmValueAvg% Avg
0LYDM8KOOTENAI-LIBBY DAM10-27-2014INFLOW (KAF)929863108
1LEOI1KOOTENAI-AT LEONIA10-27-2014DISCHARGE (KAF)28971473197
2BFEI1KOOTENAI-AT BONNERS FERRY10-27-2014STAGE (FT)MMM
3FCFM8NF FLATHEAD-NEAR COLUMBIA FALLS10-27-2014DISCHARGE (KAF)186186101
4WGCM8MF FLATHEAD-NEAR WEST GLACIER10-27-2014DISCHARGE (KAF)15016392
5HHWM8SF FLATHEAD-HUNGRY HORSE DAM10-27-2014INFLOW (KAF)17924174
6CFMM8FLATHEAD-AT COLUMBIA FALLS10-27-2014DISCHARGE (KAF)919116879
7DLGM8CLARK FORK-AT DEER LODGE10-27-2014DISCHARGE (KAF)556288
8DRMM8CLARK FORK-NR DRUMMOND10-27-2014DISCHARGE (KAF)134MM
9RCCM8ROCK CREEK-NEAR CLINTON10-27-2014DISCHARGE (KAF)4848100
10BONM8BLACKFOOT-NEAR BONNER10-27-2014DISCHARGE (KAF)135133101
11ABOM8CLARK FORK-ABOVE MISSOULA10-27-2014DISCHARGE (KAF)33033997
12BITM8BITTERROOT-NEAR MISSOULA10-27-2014DISCHARGE (KAF)19822389
13BELM8CLARK FORK-BELOW MISSOULA10-27-2014DISCHARGE (KAF)52756793
14STRM8ST. REGIS-NEAR ST. REGIS10-27-2014DISCHARGE (KAF)203950
15SRGM8CLARK FORK-AT ST REGIS10-27-2014DISCHARGE (KAF)67674591
16KERM8FLATHEAD-KERR DAM10-27-2014INFLOW (KAF)1085149473
17NOXM8CLARK FORK-NOXON RAPIDS DAM10-27-2014INFLOW (KAF)2803354079
18CABI1CLARK FORK-CABINET GORGE DAM10-27-2014INFLOW (KAF)3080369583
19PRTI1PRIEST-NEAR PRIEST RIVER10-27-2014DISCHARGE (KAF)22622899
20ALFW1PEND OREILLE-ALBENI FALLS DAM10-27-2014INFLOW (KAF)3220431375
21HOPI1PEND OREILLE-PEND OREILLE LAKE NR HOPE10-27-2014LAKE ELEVATION (FT)MMM
22COEI1COEUR D ALENE-COEUR D ALENE LAKE10-27-2014INFLOW (KAF)29474539
23SPOW1SPOKANE-AT SPOKANE10-27-2014DISCHARGE (KAF)351MM
24LLKW1SPOKANE-AT LONGLAKE10-27-2014INFLOW (KAF)542121745
25SATI1ST MARIES-NEAR SANTA10-27-2014DISCHARGE (KAF)153741
26SJMI1ST JOE-AT ST MARIES10-27-2014STAGE (FT)MMM
27CIBW1COLUMBIA-AT INTL BOUNDARY10-27-2014DISCHARGE (KAF)17939MM
28LAUW1KETTLE-AT LAURIER10-27-2014DISCHARGE (KAF)194124157
29GCDW1COLUMBIA-GRAND COULEE DAM10-27-2014INFLOW (KAF)1876817242109
30CHJW1COLUMBIA-CHIEF JOSEPH DAM10-27-2014INFLOW (KAF)215592167699
31TONW1OKANOGAN-NEAR TONASKET10-27-2014DISCHARGE (KAF)343283121
32PATW1METHOW-NEAR PATEROS10-27-2014DISCHARGE (KAF)11597118
33WELW1COLUMBIA-WELLS DAM10-27-2014INFLOW (KAF)2201022079100
34CHDW1CHELAN-LAKE CHELAN DAM10-27-2014INFLOW (KAF)404159255
35RRHW1COLUMBIA-ROCKY REACH DAM10-27-2014INFLOW (KAF)2263222581100
36ARDW1ENTIAT-NEAR ARDENVOIR10-27-2014DISCHARGE (KAF)3822173
37PESW1WENATCHEE-AT PESHASTIN10-27-2014DISCHARGE (KAF)448303148
38WANW1COLUMBIA-WANAPUM DAM10-27-2014INFLOW (KAF)2306519932116
39PRWW1COLUMBIA-PRIEST RAPIDS DAM10-27-2014INFLOW (KAF)2305820266114
40KEDW1YAKIMA-KEECHELUS LAKE10-27-2014INFLOW (KAF)5852110
41KADW1KACHESS-KACHESS DAM10-27-2014INFLOW (KAF)454796
42EASW1YAKIMA-AT EASTON10-27-2014DISCHARGE (KAF)8770124
43CLUW1CLE ELUM-CLE ELUM LAKE10-27-2014INFLOW (KAF)122106116
44TNAW1TEANAWAY-BELOW FORKS10-27-2014DISCHARGE (KAF)344281
45UMTW1YAKIMA-AT UMTANUM10-27-2014DISCHARGE (KAF)286255112
46BUDW1BUMPING-BUMPING LAKE DAM10-27-2014INFLOW (KAF)3937106
47CLFW1NACHES-NEAR CLIFFDEL10-27-2014DISCHARGE (KAF)9910792
48RILW1TIETON-RIMROCK LAKE NEAR RIMROCK10-27-2014INFLOW (KAF)536877
49NACW1NACHES-NEAR NACHES10-27-2014DISCHARGE (KAF)13882167
50PARW1YAKIMA-NEAR PARKER10-27-2014DISCHARGE (KAF)42648887
51KIOW1YAKIMA-AT KIONA10-27-2014DISCHARGE (KAF)66972093
52IPDI1HENRYS FORK-ISLAND PARK DAM10-27-2014INFLOW (KAF)8311572
53CHEI1FALLS-NEAR CHESTER10-27-2014DISCHARGE (KAF)134113119
54ANTI1HENRYS FORK-AT ST. ANTHONY10-27-2014DISCHARGE (KAF)30234288
55TEAI1TETON-NEAR ST. ANTHONY10-27-2014DISCHARGE (KAF)9910198
56REXI1HENRYS FORK-AT REXBURG10-27-2014DISCHARGE (KAF)41343096
57JLKW4SNAKE-JACKSON LAKE AT DAM10-27-2014INFLOW (KAF)10411492
58JKSW4SNAKE-NEAR JACKSON10-27-2014DISCHARGE (KAF)397305130
59ALPW4SNAKE-NEAR ALPINE10-27-2014DISCHARGE (KAF)479382126
60PLDI1SF SNAKE-PALISADES DAM10-27-2014INFLOW (KAF)697616113
61HEII1SNAKE-NEAR HEISE10-27-2014DISCHARGE (KAF)43257775
62RIDI1WILLOW CREEK-RIRIE DAM10-27-2014INFLOW (KAF)6873
63SIFI1SNAKE-AB EAGLE ROCK NR IDAHO FALLS10-27-2014DISCHARGE (KAF)68181783
64SHYI1SNAKE-NEAR SHELLEY10-27-2014DISCHARGE (KAF)68580885
65SNAI1SNAKE-AT BLACKFOOT10-27-2014DISCHARGE (KAF)60974282
66BFTI1SNAKE-NEAR BLACKFOOT10-27-2014DISCHARGE (KAF)61479278
67PIHI1PORTNEUF-AT POCATELLO10-27-2014DISCHARGE (KAF)426466
68AFRI1SNAKE-AMERICAN FALLS RESERVOIR10-27-2014INFLOW (KAF)1295148287
69MILI1SNAKE-AT MILNER10-27-2014DISCHARGE (KAF)12758922
70HOTI1BRUNEAU-NEAR HOT SPRINGS10-27-2014DISCHARGE (KAF)172961
71SWAI1SNAKE-BELOW SWAN FALLS10-27-2014DISCHARGE (KAF)1656257064
72HWRI1BIG LOST-AT HOWELL RANCH NEAR CHILLY10-27-2014DISCHARGE (KAF)162079
73MACI1BIG LOST-MACKAY RESERVOIR NEAR MACKAY10-27-2014INFLOW (KAF)295572
74HALI1BIG WOOD-AT HAILEY10-27-2014DISCHARGE (KAF)313880
75MAGI1BIG WOOD-MAGIC DAM10-27-2014INFLOW (KAF)202870
76LWRI1LITTLE WOOD-LITTLE WOOD DAM10-27-2014INFLOW (KAF)91561
77OWYO3OWYHEE-BELOW OWYHEE DAM10-27-2014INFLOW (KAF)558962
78ARAI1SF BOISE-ANDERSON RANCH DAM10-27-2014INFLOW (KAF)687590
79LUCI1BOISE-LUCKY PEAK DAM10-27-2014INFLOW (KAF)93MM
80BIGI1BOISE-AT GLENWOOD BRIDGE10-27-2014DISCHARGE (KAF)7436204
81PARI1BOISE-NEAR PARMA10-27-2014DISCHARGE (KAF)226210108
82WRMO3MALHEUR-WARM SPRINGS DAM10-27-2014INFLOW (KAF)162564
83BERO3MALHEUR-AGENCY VALLEY DAM10-27-2014INFLOW (KAF)161789
84BULO3BULLY CREEK-BULLY CREEK DAM10-27-2014INFLOW (KAF)2362
85VALO3MALHEUR-NEAR VALE10-27-2014DISCHARGE (KAF)152951
86CSDI1NF PAYETTE-CASCADE DAM10-27-2014INFLOW (KAF)749578
87DEDI1DEADWOOD-NEAR LOWMAN10-27-2014INFLOW (KAF)181997
88EMMI1PAYETTE-NEAR EMMETT10-27-2014DISCHARGE (KAF)25535672
89WSRI1WEISER-NEAR WEISER10-27-2014DISCHARGE (KAF)389042
90WEII1SNAKE-AT WEISER10-27-2014DISCHARGE (KAF)2467367267
91BRNI1SNAKE-BROWNLEE DAM10-27-2014INFLOW (KAF)2652379670
92WHBI1SALMON-AT WHITEBIRD10-27-2014DISCHARGE (KAF)1030106497
93TRYO3GRANDE RONDE-TROY10-27-2014DISCHARGE (KAF)23132272
94ANAW1SNAKE-NEAR ANATONE10-27-2014DISCHARGE (KAF)4084578571
95ORFI1CLEARWATER-AT OROFINO10-27-2014DISCHARGE (KAF)44470463
96DWRI1NF CLEARWATER-DWORSHAK DAM10-27-2014INFLOW (KAF)30153956
97SPDI1CLEARWATER-AT SPALDING10-27-2014DISCHARGE (KAF)888168053
98LGDW1SNAKE-LOWER GRANITE DAM10-27-2014INFLOW (KAF)4972768365
99LGSW1SNAKE-LITTLE GOOSE DAM10-27-2014INFLOW (KAF)4972773364
100LMNW1SNAKE-LOWER MONUMENTAL DAM10-27-2014INFLOW (KAF)5048784464
101IHDW1SNAKE-ICE HARBOR DAM10-27-2014INFLOW (KAF)5048775765
102TCHW1WALLA WALLA-NEAR TOUCHET10-27-2014DISCHARGE (KAF)11813091
103MCDW1COLUMBIA-MCNARY DAM10-27-2014INFLOW (KAF)287913004696
104GIBO3UMATILLA-NEAR GIBBON10-27-2014DISCHARGE (KAF)233665
105PDTO3UMATILLA-AT PENDLETON10-27-2014DISCHARGE (KAF)668776
106MYKO3MCKAY CREEK-NEAR PILOT ROCK10-27-2014DISCHARGE (KAF)171991
107UMAO3UMATILLA-NEAR UMATILLA10-27-2014DISCHARGE (KAF)10892118
108MONO3NF JOHN DAY-AT MONUMENT10-27-2014DISCHARGE (KAF)8712471
109SERO3JOHN DAY-AT SERVICE CK10-27-2014DISCHARGE (KAF)16122372
110JDAO3COLUMBIA-JOHN DAY DAM10-27-2014INFLOW (KAF)299973114196
111MODO3DESCHUTES-AT MOODY NR BIGGS10-27-2014DISCHARGE (KAF)14221420100
112TDAO3COLUMBIA-THE DALLES DAM10-27-2014INFLOW (KAF)307353503388
113PITW1KLICKITAT-NEAR PITT10-27-2014DISCHARGE (KAF)338297114
114HODO3HOOD-NEAR TUCKER BRIDGE10-27-2014DISCHARGE (KAF)354241147
115UNDW1WHITE SALMON-NEAR UNDERWOOD10-27-2014DISCHARGE (KAF)311248126
116BONO3COLUMBIA-BONNEVILLE DAM10-27-2014INFLOW (KAF)31723MM